Preview of NWS' New Version of Forecast
This preview is not operational and should not be used for support decisions.

Regional Weather Roundup (RWR)

Issued by National Weather Service (NWS)

                            
000
ASUS44 KMEG 232100
RWRTN 
TENNESSEE HOURLY STATE WEATHER ROUNDUP
NATIONAL WEATHER SERVICE MEMPHIS TN
400 PM CDT TUE APR 23 2019

TNZ002-004-019-021-049-052-054-088>092-232200-
WEST TENNESSEE
  
CITY           SKY/WX    TMP DP  RH WIND       PRES   REMARKS
MEMPHIS INTL   PTSUNNY   75  61  61 S10       30.00F                  
NWS MEMPHIS      N/A     77 N/A N/A MISG        N/A                   
JACKSON        FAIR      76  57  51 W15       30.04S                  
DYERSBURG      FAIR      76  59  55 VRB7      30.01F                  
$$

TNZ008-025-027-028-033-062-065-066-232200-
NORTH MIDDLE TENNESSEE
  
CITY           SKY/WX    TMP DP  RH WIND       PRES   REMARKS
NASHVILLE      PTSUNNY   80  48  32 W9        30.02F                  
CLARKSVILLE    FAIR      78  51  38 SW9       30.00F                  
SMYRNA         FAIR      79  51  37 W16       30.03F                  
CROSSVILLE     FAIR      76  44  32 VRB7      30.05F                  
$$

TNZ061-075-076-078-094-096-097-232200-
SOUTH MIDDLE TENNESSEE
  
CITY           SKY/WX    TMP DP  RH WIND       PRES   REMARKS
$$

TNZ017-018-042-046-047-232200-
NORTHEAST TENNESSEE
  
CITY           SKY/WX    TMP DP  RH WIND       PRES   REMARKS
TRI CITIES     FAIR      79  47  32 W12       30.01F                  
$$

TNZ012-013-036-069-073-074-232200-
CENTRAL EAST TENNESSEE
  
CITY           SKY/WX    TMP DP  RH WIND       PRES   REMARKS
KNOXVILLE      PTSUNNY   78  52  40 SW14      30.01F                  
OAK RIDGE      FAIR      83  52  34 VRB6      30.02F                  
$$

TNZ083-085-099-232200-
SOUTHEAST TENNESSEE
  
CITY           SKY/WX    TMP DP  RH WIND       PRES   REMARKS
CHATTANOOGA    PTSUNNY   83  44  25 SW7       30.02F                  
$$

SKY/WX REPORTED AS FAIR MEANS FEW OR NO CLOUDS BELOW
12 THOUSAND FEET.